Location: Newark
(25.6108°S, 54.5803°W)
Time: 17:24:30
(UTC+00:00)

Courier 1B Rocket - Pass Details

Date: 27 October 2020
Orbit: 920 x 1202 km, 28.2° (Epoch: 22 November)

Event Time Altitude Azimuth Distance (km) Brightness Sun altitude
Rises 12:26:24 0° 266° (W) 3,770 7.7 46.9°
Reaches altitude 10° 12:29:11 10° 263° (W) 2,777 7.1 47.5°
Maximum altitude 12:35:52 70° 180° (S) 1,019 5.9 49.0°
Drops below altitude 10° 12:42:11 10° 96° (E) 2,635 8.1 50.4°
Sets 12:44:46 0° 93° (E) 3,565 8.5 51.0°
